Location: Antoign�
(47.0844°N, 0.1131°W)
Time: 03:43:28
(UTC+00:00)

ERBS - Pass Details

Date: 03 March 2021
Orbit: 408 x 412 km, 57.0° (Epoch: 16 April)

Event Time Altitude Azimuth Distance (km) Brightness Sun altitude
Rises 18:55:40 0° 257° (WSW) 2,349 7.7 -12.1°
Reaches altitude 10° 18:57:54 10° 268° (W) 1,488 6.5 -12.5°
Maximum altitude 19:00:55 31° 333° (NNW) 751 3.8 -13.0°
Enters shadow 19:03:51 11° 38° (NE) 1,459 4.7 -13.5°
